星链-2218 (STARLINK-2218 )

导读 | 豆包AI

STARLINK-2218是美国SpaceX公司星链(Starlink)星座的一员,于2021年3月24日发射入轨。作为低轨通信卫星,它采用V1.0设计,配备Ku/Ka波段相控阵通信载荷与氪霍尔推进器,运行在约550公里近地轨道。它服务全球宽带互联网接入,具备自主避撞能力,设计寿命约5-7年,退役后会主动离轨再入大气层烧毁,是星链全球星座组网的重要组成部分。

基本信息
目录编号:
47999
目录名称:
STARLINK-2218
国际标识:
2021-024Y
轨道中心:
EARTH
卫星名称:
星链-2218
卫星全名:
星链-2218 (STARLINK-2218 )
卫星状态:
已陨落 最后检测时间 2024-08-27
发射日期:
2021-03-24 UTC
国别 :
美国 (US)
星等 :
--
轨道信息
数据来源 国际轨道数据
星历时间: 2024-08-27T19:11:25+0800
轨道信息已过期610天
半长轴: 6561.997km
偏心率: 0.0005057
轨道倾角: 53.033°
近地点辐角 229.742°
升交点赤经 183.685°
平近点角 255.294°
近地点: 180.543km
远地点: 187.181km
周期: 88.169分钟
每日圈数: 16.332355
详细信息
固有亮度:
5
最大亮度:
2.5
卫星平台:
Starlink V1.0
覆盖范围:
全球
运营商:
太空探索技术公司
运营商所在国:
美国
制造商(研发单位):
太空探索技术公司
制造商所在国:
美国
使用方式:
暂无
卫星简介
星链(Starlink)计划是由太空探索技术公司(SpaceX)提出的一个巨型低轨卫星互联网星座项目,计划在2019年至2024年间在太空搭建由约1.2万颗卫星组成的“星链”网络,其中1584颗将部署在地球上空550千米处的近地轨道,并从2020年开始工作。该卫星仍在工作。